Location: Unspecified
(0.0000°N, 0.0000°E)
Time: 19:32:37
(UTC+00:00)

APRIZESAT 1 (LATINSAT C) - Visible Passes

Search period start: 18 May 2026 00:00
Search period end: 28 May 2026 00:00
Orbit: 689 x 751 km, 98.6° (Epoch: 18 May)

Date Brightness Start Highest point End Pass type
(mag) Time Alt. Az. Time Alt. Az. Time Alt. Az.
18 May ? 05:02:01 10° ENE 05:03:59 12° ESE 05:05:57 10° SE visible
18 May ? 19:02:29 10° SW 19:05:35 17° WSW 19:08:42 10° WNW visible
20 May ? 05:00:37 10° E 05:02:11 11° ESE 05:03:45 10° ESE visible
20 May ? 19:00:32 10° SW 19:03:48 18° WSW 19:07:07 10° WNW visible
22 May ? 04:59:23 10° E 05:00:24 11° ESE 05:01:24 10° ESE visible
22 May ? 18:58:34 10° SSW 19:02:01 19° WSW 19:05:30 10° WNW visible
24 May ? 18:56:38 10° SSW 19:00:14 21° WSW 19:03:53 10° NW visible
26 May ? 18:54:42 10° SSW 18:58:27 22° WSW 19:02:14 10° NW visible
